"startDT [UTC]","vpos","CH4 [ppm]","stdev(CH4) [ppm]","CO2 [ppm]","stdev(CO2) [ppm]","H2O_reported [%]","stdev(H2O_reported)","CavityPressure [torr]","CavityTemp [C]","OutletValve","CH4_dry [ppm]","CO2_dry [ppm]","DasTemp [C]","EtalonTemp [C]","WarmBoxTemp [C]","MPVPosition","T_ECpre [C]","T_EC1 [C]","T_EC2 [C]","p_inlet [hPa]","p_in [hPa]","p_out [hPa]","T_inlet [C]","RH_inlet [%]","dwpt_inlet [C]","T_vent [C]","RH_vent [%]","dwpt_vent [C]","flow_vent [l min-1]","flow_inlet [l min-1]","dwpt_sample [C]","T_room [C]"
2015-04-26 00:00:00,0.0,1.92905,0.00035,404.798,0.029,0.1695,0.0015,140.004,45.000,34098.90593,1.93226,405.625,32.679,45.068,45.000,0.00,0.09,-272.72,-272.78,-2,966,-1,21.3,4.9,-20.0,20.9,5.1,-19.8,5.73,1.98,-15.0,25.3
2015-04-26 00:01:00,0.0,1.92914,0.00043,404.784,0.025,0.1680,0.0018,140.000,45.000,34099.64030,1.93234,405.606,32.678,45.068,45.000,0.00,0.09,-272.72,-272.78,-2,966,-1,21.4,4.9,-20.1,20.9,5.1,-19.9,5.73,2.02,-14.9,25.4
2015-04-26 00:02:00,0.0,1.92886,0.00038,404.784,0.032,0.1656,0.0017,140.002,45.000,34101.97979,1.93204,405.592,32.673,45.068,45.000,0.00,0.09,-272.72,-272.78,-2,966,-1,21.4,4.8,-20.3,20.9,5.0,-20.0,5.73,1.99,-15.0,25.4
2015-04-26 00:03:00,0.0,1.92892,0.00024,404.792,0.034,0.1643,0.0016,140.001,45.000,34100.08648,1.93204,405.594,32.680,45.068,45.000,0.00,0.09,-272.72,-272.76,-2,966,-1,21.4,4.8,-20.4,20.9,5.0,-20.2,5.73,1.93,-15.0,25.4
2015-04-26 00:04:00,0.0,1.92910,0.00048,404.793,0.039,0.1643,0.0014,139.996,45.000,34100.58104,1.93222,405.595,32.684,45.068,45.000,0.00,0.09,-272.73,-272.78,-2,966,-1,21.4,4.8,-20.4,20.9,5.0,-20.2,5.73,1.90,-15.0,25.5
2015-04-26 00:05:00,0.0,1.92920,0.00033,404.770,0.029,0.1652,0.0020,140.008,45.000,34103.98967,1.93238,405.579,32.660,45.068,45.000,0.00,0.09,-272.72,-272.78,-2,966,-1,21.4,4.8,-20.4,20.9,5.0,-20.1,5.73,1.94,-15.0,25.4
2015-04-26 00:06:00,0.0,1.92908,0.00044,404.809,0.028,0.1627,0.0015,139.998,45.000,34101.02921,1.93216,405.602,32.662,45.068,45.000,0.00,0.09,-272.71,-272.78,-2,966,-1,21.4,4.7,-20.5,20.9,5.0,-20.2,5.73,2.00,-15.0,25.4
2015-04-26 00:07:00,0.0,1.92903,0.00031,404.797,0.033,0.1629,0.0015,140.000,45.000,34103.31603,1.93214,405.592,32.684,45.068,45.000,0.00,0.09,-272.72,-272.77,-1,966,-1,21.4,4.7,-20.5,20.9,4.9,-20.3,5.73,2.01,-15.0,25.5
2015-04-26 00:08:00,0.0,1.92902,0.00050,404.811,0.038,0.1629,0.0016,139.998,45.000,34101.73582,1.93209,405.608,32.690,45.068,45.000,0.00,0.09,-272.72,-272.77,-2,966,-1,21.4,4.7,-20.5,20.9,4.9,-20.3,5.73,1.95,-15.0,25.4
2015-04-26 00:09:00,0.0,1.92892,0.00051,404.828,0.037,0.1640,0.0013,140.000,45.000,34102.37493,1.93205,405.627,32.688,45.068,45.000,0.00,0.09,-272.71,-272.77,-2,966,-1,21.4,4.8,-20.4,21.0,5.0,-20.2,5.73,1.89,-15.0,25.4
2015-04-26 00:10:00,0.0,1.92856,0.00049,404.816,0.034,0.1641,0.0022,139.997,45.000,34104.69904,1.93169,405.619,32.691,45.068,45.000,0.00,0.09,-272.72,-272.78,-2,966,-1,21.4,4.8,-20.4,21.0,5.0,-20.2,5.73,1.91,-15.0,25.4
2015-04-26 00:11:00,0.0,1.92905,0.00040,404.816,0.028,0.1629,0.0018,139.999,45.000,34104.06383,1.93216,405.611,32.724,45.068,45.000,0.00,0.09,-272.71,-272.77,-2,967,-1,21.4,4.7,-20.5,21.0,4.9,-20.2,5.73,1.98,-15.0,25.4
2015-04-26 00:12:00,0.0,1.92932,0.00037,404.828,0.034,0.1632,0.0015,139.999,45.000,34104.55146,1.93239,405.625,32.729,45.068,45.000,0.00,0.09,-272.72,-272.78,-2,967,-1,21.4,4.7,-20.4,21.0,4.9,-20.2,5.73,2.01,-15.0,25.4
2015-04-26 00:13:00,0.0,1.92903,0.00039,404.802,0.033,0.1635,0.0016,139.996,45.000,34106.24579,1.93219,405.600,32.697,45.068,45.000,0.00,0.09,-272.72,-272.78,-2,966,-1,21.4,4.7,-20.5,21.0,4.9,-20.2,5.73,1.99,-15.0,25.4
2015-04-26 00:14:00,0.0,1.92971,0.00092,404.805,0.032,0.1631,0.0017,139.997,45.000,34108.01912,1.93267,405.603,32.677,45.068,45.000,0.00,0.09,-272.72,-272.78,-2,967,-1,21.4,4.7,-20.5,21.0,4.9,-20.2,5.73,1.94,-15.0,25.4
2015-04-26 00:15:00,0.0,1.93180,0.00049,404.803,0.026,0.1596,0.0020,140.001,45.000,34108.84129,1.93489,405.583,32.636,45.068,45.000,0.00,0.09,-272.72,-272.78,-3,969,-1,21.5,4.6,-20.6,21.0,4.9,-20.4,5.73,1.94,-15.0,25.5
2015-04-26 00:16:00,0.0,1.93140,0.00067,404.797,0.037,0.1591,0.0015,140.002,45.000,34114.41111,1.93444,405.574,32.594,45.068,45.000,0.00,0.09,-272.72,-272.77,-3,969,-1,21.5,4.6,-20.7,21.1,4.8,-20.4,5.73,1.95,-14.9,25.5
2015-04-26 00:17:00,0.0,1.93064,0.00049,404.759,0.037,0.1605,0.0011,140.003,44.999,34117.95613,1.93372,405.542,32.487,45.068,45.000,0.00,0.09,-272.72,-272.78,-3,971,-1,21.5,4.7,-20.6,21.1,4.9,-20.4,5.73,1.96,-14.9,25.6
2015-04-26 00:18:00,0.0,1.93129,0.00060,404.783,0.034,0.1605,0.0023,140.000,44.999,34118.16814,1.93430,405.566,32.402,45.068,45.000,0.00,0.09,-272.72,-272.78,-3,971,-1,21.5,4.6,-20.6,21.1,4.9,-20.3,5.73,1.96,-14.9,25.6
2015-04-26 00:19:00,0.0,1.93094,0.00099,404.791,0.048,0.1586,0.0015,140.004,44.999,34121.30461,1.93403,405.566,32.316,45.069,45.000,0.00,0.09,-272.71,-272.77,-3,971,-1,21.5,4.6,-20.7,21.1,4.8,-20.5,5.73,1.96,-14.9,25.7
2015-04-26 00:20:00,0.0,1.93106,0.00119,404.764,0.034,0.1601,0.0022,139.996,44.999,34118.28920,1.93404,405.546,32.227,45.069,45.001,0.00,0.09,-272.72,-272.77,-3,972,-1,21.5,4.6,-20.6,21.1,4.8,-20.4,5.73,1.96,-14.9,25.7
2015-04-26 00:21:00,0.0,1.93189,0.00041,404.741,0.040,0.1622,0.0028,139.997,44.999,34119.24313,1.93499,405.533,32.133,45.069,45.001,0.00,0.09,-272.72,-272.77,-3,973,-1,21.5,4.7,-20.5,21.0,4.9,-20.3,5.73,1.96,-14.9,25.7
2015-04-26 00:22:00,0.0,1.93205,0.00021,404.726,0.033,0.1612,0.0017,139.999,44.999,34120.94624,1.93510,405.514,32.063,45.069,45.001,0.00,0.09,-272.71,-272.77,-3,973,-1,21.5,4.7,-20.6,21.0,4.9,-20.3,5.73,1.97,-14.9,25.7
2015-04-26 00:23:00,0.0,1.93193,0.00035,404.744,0.029,0.1598,0.0014,140.000,44.999,34121.16245,1.93501,405.524,31.990,45.070,45.001,0.00,0.09,-272.71,-272.77,-3,973,-1,21.4,4.7,-20.6,21.0,4.9,-20.4,5.73,1.96,-14.9,25.7
2015-04-26 00:24:00,0.0,1.93185,0.00032,404.749,0.037,0.1613,0.0018,140.000,44.999,34121.14253,1.93491,405.535,31.939,45.069,45.001,0.00,0.09,-272.72,-272.78,-3,974,-2,21.4,4.7,-20.6,21.0,4.9,-20.4,5.73,1.97,-14.9,25.7
2015-04-26 00:25:00,0.0,1.93172,0.00041,404.745,0.039,0.1622,0.0016,140.001,44.999,34119.64824,1.93485,405.536,31.892,45.069,45.001,0.00,0.09,-272.72,-272.78,-3,974,-1,21.4,4.7,-20.5,21.0,4.9,-20.3,5.73,1.96,-14.9,25.7
2015-04-26 00:26:00,0.0,1.93046,0.00090,404.755,0.037,0.1625,0.0015,139.997,44.999,34118.76602,1.93353,405.552,31.854,45.069,45.001,0.00,0.09,-272.71,-272.78,-3,974,-2,21.4,4.7,-20.5,21.0,4.9,-20.3,5.73,1.96,-14.9,25.7
2015-04-26 00:27:00,0.0,1.93066,0.00084,404.777,0.044,0.1625,0.0019,140.001,44.999,34119.47041,1.93386,405.570,31.820,45.069,45.001,0.00,0.09,-272.72,-272.77,-4,974,-2,21.4,4.7,-20.5,21.0,4.9,-20.4,5.73,1.96,-14.9,25.7
2015-04-26 00:28:00,0.0,1.93053,0.00074,404.776,0.030,0.1619,0.0018,140.001,45.000,34118.97574,1.93352,405.567,31.812,45.069,45.001,0.00,0.09,-272.72,-272.78,-4,974,-2,21.4,4.7,-20.6,21.0,4.9,-20.4,5.73,1.96,-14.9,25.7
2015-04-26 00:29:00,0.0,1.93101,0.00069,404.758,0.025,0.1634,0.0014,140.000,45.000,34116.48180,1.93420,405.555,31.812,45.069,45.000,0.00,0.09,-272.72,-272.77,-4,974,-2,21.4,4.7,-20.5,21.0,4.9,-20.3,5.73,1.96,-13.8,25.6
2015-04-26 00:30:00,0.0,1.93015,0.00031,404.768,0.034,0.1654,0.0014,140.001,45.000,34116.35574,1.93330,405.575,31.840,45.069,45.000,0.00,0.09,-272.72,-272.77,-3,974,-1,21.4,4.8,-20.4,21.0,5.0,-20.2,5.73,1.96,-13.9,25.5
2015-04-26 00:31:00,0.0,1.93070,0.00054,404.766,0.026,0.1657,0.0020,140.000,45.000,34115.89951,1.93382,405.576,31.887,45.068,45.000,0.00,0.09,-272.73,-272.78,-4,973,-2,21.4,4.8,-20.3,21.0,5.0,-20.1,5.73,1.95,-14.0,25.5
2015-04-26 00:32:00,0.0,1.93104,0.00029,404.762,0.032,0.1648,0.0014,139.999,45.000,34115.71386,1.93418,405.567,31.936,45.068,45.000,0.00,0.09,-272.72,-272.77,-3,973,-2,21.4,4.8,-20.4,21.0,5.0,-20.2,5.73,1.94,-14.1,25.4
2015-04-26 00:33:00,0.0,1.93091,0.00042,404.781,0.027,0.1632,0.0012,140.000,45.000,34115.66894,1.93404,405.579,31.984,45.068,44.999,0.00,0.09,-272.72,-272.77,-3,972,-2,21.4,4.7,-20.4,21.0,4.9,-20.2,5.73,1.93,-14.2,25.4
2015-04-26 00:34:00,0.0,1.93114,0.00037,404.773,0.030,0.1642,0.0018,140.000,45.000,34116.73158,1.93425,405.576,32.047,45.068,44.999,0.00,0.09,-272.72,-272.78,-3,973,-2,21.3,4.7,-20.5,21.0,4.9,-20.2,5.73,1.92,-14.2,25.4
2015-04-26 00:35:00,0.0,1.93259,0.00036,404.737,0.036,0.1644,0.0015,140.001,45.001,34117.33569,1.93565,405.539,32.098,45.068,44.999,0.00,0.09,-272.72,-272.77,-3,972,-2,21.4,4.7,-20.4,21.0,4.9,-20.2,5.73,1.94,-14.3,25.3
2015-04-26 00:36:00,0.0,1.93266,0.00051,404.741,0.025,0.1651,0.0021,139.999,45.001,34115.83322,1.93583,405.548,32.130,45.068,44.999,0.00,0.09,-272.72,-272.77,-3,971,-2,21.3,4.8,-20.4,21.0,5.0,-20.2,5.73,1.96,-14.3,25.4
2015-04-26 00:37:00,0.0,1.93245,0.00047,404.719,0.028,0.1651,0.0022,140.001,45.001,34116.92408,1.93557,405.526,32.187,45.068,44.999,0.00,0.09,-272.72,-272.77,-3,971,-2,21.3,4.8,-20.4,21.0,5.0,-20.1,5.73,1.98,-14.4,25.4
2015-04-26 00:38:00,0.0,1.93239,0.00035,404.734,0.042,0.1626,0.0022,140.000,45.000,34118.23517,1.93550,405.529,32.238,45.068,44.999,0.00,0.09,-272.72,-272.78,-3,971,-1,21.3,4.7,-20.5,21.0,4.9,-20.3,5.73,2.00,-14.4,25.4
2015-04-26 00:39:00,0.0,1.93265,0.00037,404.731,0.034,0.1631,0.0018,140.003,45.001,34118.45153,1.93577,405.527,32.283,45.068,44.999,0.00,0.09,-272.72,-272.78,-3,970,-1,21.3,4.7,-20.5,20.9,4.9,-20.3,5.73,1.99,-14.4,25.4
2015-04-26 00:40:00,0.0,1.93229,0.00034,404.707,0.031,0.1631,0.0017,140.003,45.001,34121.33142,1.93541,405.505,32.315,45.068,44.999,0.00,0.09,-272.72,-272.78,-3,970,-2,21.3,4.7,-20.5,20.9,4.9,-20.3,5.73,1.95,-14.5,25.4
2015-04-26 00:41:00,0.0,1.93235,0.00031,404.708,0.030,0.1638,0.0022,140.000,45.001,34117.46407,1.93548,405.509,32.369,45.068,45.000,0.00,0.09,-272.72,-272.78,-3,969,-1,21.3,4.8,-20.4,21.0,4.9,-20.2,5.73,1.92,-14.5,25.3
2015-04-26 00:42:00,0.0,1.93257,0.00038,404.679,0.041,0.1681,0.0022,140.002,45.000,34116.79765,1.93577,405.500,32.412,45.068,45.000,0.00,0.09,-272.72,-272.78,-2,968,-1,21.3,4.9,-20.2,21.0,5.0,-20.0,5.73,1.92,-14.5,25.4
2015-04-26 00:43:00,0.0,1.93248,0.00034,404.693,0.039,0.1641,0.0015,139.999,45.001,34116.83527,1.93559,405.495,32.450,45.068,45.000,0.00,0.09,-272.72,-272.77,-2,969,-1,21.3,4.8,-20.4,21.0,5.0,-20.2,5.73,1.96,-14.5,25.4
2015-04-26 00:44:00,0.0,1.93202,0.00046,404.658,0.027,0.1639,0.0015,140.001,45.001,34119.28644,1.93516,405.459,32.476,45.068,45.000,0.00,0.09,-272.72,-272.78,-2,968,-1,21.3,4.7,-20.5,21.0,4.9,-20.3,5.73,2.01,-14.5,25.3
2015-04-26 00:45:00,0.0,1.93236,0.00042,404.687,0.026,0.1621,0.0022,140.000,45.000,34117.07272,1.93544,405.478,32.500,45.068,45.000,0.00,0.09,-272.73,-272.78,-2,968,-1,21.3,4.7,-20.5,21.0,4.9,-20.3,5.73,2.01,-14.6,25.3
2015-04-26 00:46:00,0.0,1.93226,0.00033,404.689,0.030,0.1604,0.0022,140.001,45.000,34115.91538,1.93532,405.472,32.530,45.068,45.000,0.00,0.09,-272.71,-272.78,-2,968,-1,21.3,4.7,-20.6,21.0,4.9,-20.4,5.73,1.95,-14.6,25.3
2015-04-26 00:47:00,0.0,1.93232,0.00032,404.685,0.032,0.1608,0.0013,140.000,45.001,34115.25379,1.93540,405.472,32.562,45.068,45.000,0.00,0.09,-272.72,-272.77,-2,967,-1,21.3,4.7,-20.6,21.0,4.9,-20.4,5.73,1.91,-14.6,25.4
2015-04-26 00:48:00,0.0,1.93233,0.00032,404.657,0.032,0.1612,0.0016,140.000,45.000,34116.42062,1.93537,405.445,32.601,45.068,45.000,0.00,0.09,-272.73,-272.77,-3,967,-1,21.4,4.7,-20.6,21.0,4.9,-20.4,5.73,1.92,-14.6,25.4
2015-04-26 00:49:00,0.0,1.93224,0.00042,404.684,0.033,0.1618,0.0025,140.001,45.000,34114.87939,1.93535,405.472,32.627,45.068,45.000,0.00,0.09,-272.72,-272.77,-2,967,-1,21.4,4.7,-20.5,21.0,4.9,-20.3,5.73,1.98,-14.6,25.4
2015-04-26 00:50:00,0.0,1.93194,0.00046,404.713,0.065,0.1602,0.0020,140.002,45.000,34115.95085,1.93504,405.494,32.666,45.068,45.000,0.00,0.09,-272.71,-272.77,-3,967,-1,21.4,4.7,-20.6,21.0,4.9,-20.4,5.73,2.02,-14.6,25.4
2015-04-26 00:51:00,0.0,1.93202,0.00042,404.681,0.046,0.1607,0.0014,139.999,45.000,34115.37271,1.93508,405.468,32.693,45.068,45.000,0.00,0.09,-272.72,-272.77,-2,967,-2,21.4,4.7,-20.6,21.0,4.9,-20.4,5.73,1.99,-14.6,25.4
2015-04-26 00:52:00,0.0,1.93201,0.00030,404.662,0.022,0.1600,0.0020,139.999,45.000,34116.58034,1.93504,405.442,32.734,45.068,45.000,0.00,0.09,-272.72,-272.78,-2,966,-2,21.4,4.7,-20.6,21.0,4.9,-20.4,5.73,1.92,-14.6,25.4
2015-04-26 00:53:00,0.0,1.93191,0.00038,404.674,0.039,0.1591,0.0015,139.998,45.000,34116.22181,1.93496,405.452,32.745,45.068,45.000,0.00,0.09,-272.72,-272.78,-2,967,-1,21.4,4.6,-20.7,21.0,4.8,-20.5,5.73,1.90,-14.6,25.4
2015-04-26 00:54:00,0.0,1.93181,0.00044,404.672,0.047,0.1604,0.0013,140.000,45.000,34114.38747,1.93489,405.454,32.739,45.068,45.000,0.00,0.09,-272.72,-272.78,-2,966,-2,21.4,4.6,-20.6,21.0,4.8,-20.4,5.73,1.96,-14.6,25.4
2015-04-26 00:55:00,0.0,1.93179,0.00038,404.669,0.028,0.1614,0.0016,140.000,45.000,34117.19099,1.93484,405.456,32.720,45.068,45.000,0.00,0.09,-272.72,-272.78,-2,966,-1,21.4,4.7,-20.5,21.0,4.9,-20.3,5.73,2.01,-14.6,25.4
2015-04-26 00:56:00,0.0,1.93199,0.00035,404.694,0.035,0.1605,0.0018,139.999,45.000,34115.97661,1.93501,405.479,32.710,45.068,45.000,0.00,0.09,-272.72,-272.77,-2,966,-2,21.4,4.7,-20.6,21.1,4.9,-20.3,5.73,2.00,-14.6,25.4
2015-04-26 00:57:00,0.0,1.93199,0.00034,404.677,0.032,0.1597,0.0013,139.998,45.000,34117.10849,1.93510,405.458,32.738,45.069,45.000,0.00,0.09,-272.72,-272.78,-2,967,-2,21.5,4.6,-20.6,21.1,4.8,-20.4,5.73,1.94,-14.6,25.4
2015-04-26 00:58:00,0.0,1.93180,0.00039,404.676,0.036,0.1593,0.0014,139.995,45.000,34117.53433,1.93482,405.453,32.716,45.069,45.000,0.00,0.09,-272.72,-272.78,-2,967,-2,21.5,4.6,-20.6,21.1,4.8,-20.4,5.73,1.90,-14.6,25.5
2015-04-26 00:59:00,0.0,1.93181,0.00027,404.675,0.026,0.1597,0.0015,140.003,45.000,34120.24501,1.93485,405.454,32.696,45.069,45.001,0.00,0.09,-272.72,-272.77,-2,967,-2,21.5,4.6,-20.6,21.1,4.8,-20.4,5.73,1.93,-14.6,25.6
2015-04-26 01:00:00,0.0,1.93181,0.00034,404.697,0.037,0.1591,0.0012,139.999,45.000,34118.38980,1.93486,405.476,32.689,45.069,45.001,0.00,0.09,-272.72,-272.77,-2,967,-2,21.5,4.6,-20.6,21.1,4.8,-20.4,5.73,1.99,-14.6,25.6
2015-04-26 01:01:00,0.0,1.93193,0.00035,404.679,0.039,0.1597,0.0018,139.999,45.000,34118.25533,1.93494,405.456,32.687,45.069,45.001,0.00,0.09,-272.72,-272.78,-2,967,-2,21.5,4.6,-20.7,21.1,4.8,-20.5,5.73,2.00,-14.6,25.6
2015-04-26 01:02:00,0.0,1.93187,0.00037,404.677,0.031,0.1596,0.0011,140.001,45.000,34123.56271,1.93491,405.458,32.651,45.069,45.001,0.00,0.09,-272.72,-272.78,-3,969,-2,21.5,4.6,-20.6,21.1,4.8,-20.4,5.73,1.99,-14.6,25.6
2015-04-26 01:03:00,0.0,1.93181,0.00022,404.665,0.024,0.1593,0.0012,139.997,45.000,34125.32923,1.93489,405.443,32.624,45.069,45.000,0.00,0.09,-272.71,-272.77,-3,969,-2,21.5,4.6,-20.7,21.2,4.8,-20.5,5.73,1.96,-14.6,25.6
2015-04-26 01:04:00,0.0,1.93156,0.00050,404.687,0.029,0.1579,0.0017,140.002,45.000,34130.65568,1.93455,405.458,32.574,45.068,45.000,0.00,0.09,-272.72,-272.77,-3,970,-2,21.6,4.6,-20.7,21.2,4.7,-20.6,5.73,1.96,-14.6,25.7
2015-04-26 01:05:00,0.0,1.93179,0.00028,404.725,0.029,0.1587,0.0015,140.000,44.999,34131.34335,1.93481,405.499,32.496,45.068,45.000,0.00,0.09,-272.72,-272.78,-3,970,-2,21.6,4.6,-20.7,21.2,4.8,-20.5,5.73,1.95,-14.6,25.8
2015-04-26 01:06:00,0.0,1.93166,0.00030,404.697,0.037,0.1574,0.0020,139.999,44.999,34131.62207,1.93468,405.467,32.424,45.068,45.000,0.00,0.09,-272.71,-272.78,-3,972,-2,21.6,4.6,-20.7,21.2,4.7,-20.5,5.73,1.96,-14.6,25.8
2015-04-26 01:07:00,0.0,1.93176,0.00040,404.693,0.034,0.1577,0.0015,140.000,44.999,34130.58607,1.93478,405.462,32.356,45.068,45.000,0.00,0.09,-272.71,-272.77,-3,972,-2,21.6,4.6,-20.7,21.2,4.7,-20.5,5.73,1.96,-14.6,25.7
2015-04-26 01:08:00,0.0,1.93201,0.00040,404.707,0.027,0.1580,0.0016,139.998,44.999,34129.17869,1.93503,405.480,32.285,45.069,45.001,0.00,0.09,-272.72,-272.78,-3,972,-2,21.6,4.6,-20.7,21.2,4.7,-20.6,5.73,1.96,-14.6,25.9
2015-04-26 01:09:00,0.0,1.93157,0.00039,404.702,0.030,0.1589,0.0013,139.999,44.999,34129.91266,1.93457,405.476,32.223,45.069,45.001,0.00,0.09,-272.72,-272.77,-3,973,-2,21.6,4.6,-20.7,21.2,4.8,-20.5,5.73,1.96,-14.6,25.9
2015-04-26 01:10:00,0.0,1.93193,0.00025,404.719,0.030,0.1582,0.0021,140.003,44.999,34130.51719,1.93495,405.490,32.161,45.069,45.001,0.00,0.09,-272.72,-272.77,-3,973,-2,21.6,4.6,-20.7,21.2,4.7,-20.6,5.73,1.95,-14.6,25.9
2015-04-26 01:11:00,0.0,1.93190,0.00027,404.753,0.036,0.1574,0.0015,140.001,44.999,34129.54604,1.93490,405.523,32.122,45.069,45.001,0.00,0.09,-272.72,-272.78,-3,973,-2,21.6,4.5,-20.8,21.2,4.7,-20.6,5.73,1.96,-14.6,25.9
2015-04-26 01:12:00,0.0,1.93205,0.00027,404.733,0.026,0.1558,0.0013,139.997,44.999,34128.44720,1.93499,405.495,32.077,45.069,45.001,0.00,0.09,-272.72,-272.77,-3,974,-2,21.6,4.5,-20.8,21.2,4.7,-20.7,5.73,1.96,-14.6,25.9
2015-04-26 01:13:00,0.0,1.93191,0.00037,404.741,0.034,0.1563,0.0012,139.999,44.999,34130.00476,1.93490,405.504,32.062,45.069,45.001,0.00,0.09,-272.72,-272.77,-3,974,-2,21.6,4.5,-20.8,21.2,4.7,-20.7,5.73,1.95,-14.6,25.9
2015-04-26 01:14:00,0.0,1.93193,0.00042,404.732,0.029,0.1579,0.0016,139.997,45.000,34129.00157,1.93496,405.503,32.043,45.069,45.001,0.00,0.09,-272.72,-272.77,-4,974,-2,21.6,4.5,-20.8,21.2,4.7,-20.6,5.73,1.96,-14.6,25.9
2015-04-26 01:15:00,0.0,1.93180,0.00035,404.718,0.034,0.1567,0.0013,140.001,45.000,34129.93544,1.93476,405.482,32.004,45.069,45.000,0.00,0.09,-272.72,-272.78,-3,974,-2,21.6,4.5,-20.8,21.2,4.7,-20.6,5.73,1.95,-14.6,25.8
2015-04-26 01:16:00,0.0,1.93196,0.00038,404.719,0.030,0.1555,0.0021,140.000,45.000,34131.39393,1.93495,405.479,32.000,45.069,45.000,0.00,0.09,-272.72,-272.77,-3,974,-2,21.6,4.5,-20.9,21.2,4.7,-20.7,5.73,1.96,-14.6,25.8
2015-04-26 01:17:00,0.0,1.93201,0.00027,404.744,0.038,0.1571,0.0013,139.999,45.000,34129.38522,1.93498,405.512,31.993,45.069,45.000,0.00,0.09,-272.72,-272.77,-4,974,-2,21.6,4.5,-20.8,21.2,4.7,-20.6,5.73,1.95,-14.6,25.9
2015-04-26 01:18:00,0.0,1.93180,0.00019,404.713,0.035,0.1567,0.0016,139.997,45.000,34128.35445,1.93481,405.478,31.951,45.068,45.000,0.00,0.09,-272.73,-272.78,-4,975,-2,21.5,4.5,-20.9,21.2,4.7,-20.7,5.73,1.96,-14.6,25.9
2015-04-26 01:19:00,0.0,1.93177,0.00025,404.725,0.041,0.1576,0.0016,140.000,45.000,34130.59173,1.93478,405.495,31.939,45.068,45.000,0.00,0.09,-272.72,-272.78,-4,975,-2,21.5,4.5,-20.8,21.2,4.7,-20.6,5.73,1.95,-14.6,25.8
2015-04-26 01:20:00,0.0,1.93182,0.00031,404.736,0.029,0.1585,0.0014,140.000,45.000,34129.76920,1.93485,405.509,31.938,45.068,45.000,0.00,0.09,-272.71,-272.77,-4,975,-2,21.5,4.6,-20.8,21.2,4.7,-20.6,5.73,1.95,-14.6,25.9
2015-04-26 01:21:00,0.0,1.93165,0.00037,404.741,0.033,0.1575,0.0013,140.001,45.000,34130.30289,1.93467,405.511,31.937,45.068,45.000,0.00,0.09,-272.72,-272.77,-4,974,-2,21.5,4.6,-20.8,21.2,4.7,-20.6,5.73,1.96,-14.6,25.8
2015-04-26 01:22:00,0.0,1.93170,0.00036,404.742,0.024,0.1580,0.0016,139.999,45.000,34126.72093,1.93468,405.513,31.938,45.068,45.000,0.00,0.09,-272.72,-272.78,-4,975,-2,21.5,4.6,-20.8,21.2,4.7,-20.6,5.73,1.95,-14.6,25.8
2015-04-26 01:23:00,0.0,1.93190,0.00037,404.741,0.039,0.1591,0.0016,139.999,45.000,34123.98715,1.93495,405.518,31.939,45.068,45.000,0.00,0.09,-272.72,-272.77,-4,975,-2,21.5,4.6,-20.7,21.2,4.8,-20.5,5.73,1.96,-14.6,25.6
2015-04-26 01:24:00,0.0,1.93199,0.00034,404.725,0.033,0.1594,0.0015,139.998,45.000,34121.96840,1.93501,405.502,31.985,45.068,45.000,0.00,0.09,-272.72,-272.78,-4,974,-2,21.5,4.6,-20.7,21.1,4.7,-20.6,5.73,1.97,-14.6,25.6
2015-04-26 01:25:00,0.0,1.93191,0.00038,404.750,0.027,0.1584,0.0011,140.002,45.000,34124.04190,1.93495,405.525,32.056,45.068,45.000,0.00,0.09,-272.73,-272.78,-4,974,-2,21.5,4.6,-20.7,21.1,4.7,-20.6,5.73,1.97,-14.6,25.5
2015-04-26 01:26:00,0.0,1.93194,0.00033,404.719,0.032,0.1585,0.0020,140.002,45.000,34125.17399,1.93498,405.493,32.120,45.068,45.000,0.00,0.09,-272.72,-272.77,-3,973,-2,21.5,4.6,-20.7,21.1,4.8,-20.6,5.73,1.96,-14.6,25.5
2015-04-26 01:27:00,0.0,1.93182,0.00042,404.683,0.032,0.1616,0.0018,140.003,45.001,34126.90967,1.93488,405.472,32.185,45.068,45.000,0.00,0.09,-272.71,-272.77,-4,973,-2,21.5,4.6,-20.6,21.1,4.8,-20.5,5.73,1.94,-14.6,25.5
2015-04-26 01:28:00,0.0,1.93185,0.00034,404.708,0.029,0.1600,0.0017,139.999,45.001,34125.79286,1.93485,405.488,32.249,45.068,44.999,0.00,0.09,-272.72,-272.78,-3,973,-2,21.5,4.6,-20.6,21.1,4.8,-20.5,5.73,1.92,-14.6,25.5
2015-04-26 01:29:00,0.0,1.93219,0.00027,404.736,0.037,0.1583,0.0016,140.000,45.001,34126.31856,1.93523,405.510,32.318,45.068,44.999,0.00,0.09,-272.72,-272.77,-3,971,-2,21.5,4.6,-20.7,21.1,4.8,-20.5,5.73,1.93,-14.6,25.5
2015-04-26 01:30:00,0.0,1.93202,0.00031,404.704,0.021,0.1576,0.0016,139.998,45.000,34126.69240,1.93503,405.473,32.384,45.068,44.999,0.00,0.09,-272.71,-272.76,-3,971,-2,21.5,4.6,-20.8,21.1,4.7,-20.6,5.73,1.94,-14.5,25.6
2015-04-26 01:31:00,0.0,1.93215,0.00041,404.720,0.021,0.1553,0.0017,139.998,45.001,34126.66761,1.93513,405.478,32.466,45.068,44.999,0.00,0.09,-272.72,-272.77,-3,971,-2,21.5,4.5,-20.9,21.1,4.7,-20.7,5.73,1.99,-14.5,25.5
2015-04-26 01:32:00,0.0,1.93206,0.00037,404.715,0.036,0.1556,0.0015,140.000,45.001,34127.81693,1.93500,405.476,32.514,45.068,44.999,0.00,0.09,-272.72,-272.78,-3,971,-2,21.5,4.5,-20.9,21.1,4.7,-20.7,5.73,2.00,-14.5,25.5
2015-04-26 01:33:00,0.0,1.93189,0.00029,404.710,0.038,0.1560,0.0017,139.998,45.001,34128.62903,1.93489,405.470,32.564,45.068,44.999,0.00,0.09,-272.71,-272.77,-3,971,-2,21.5,4.5,-20.9,21.1,4.7,-20.7,5.73,1.99,-14.5,25.5
2015-04-26 01:34:00,0.0,1.93203,0.00029,404.742,0.037,0.1557,0.0017,139.999,45.001,34128.33192,1.93501,405.502,32.620,45.068,44.999,0.00,0.09,-272.71,-272.77,-3,971,-2,21.5,4.5,-21.0,21.1,4.7,-20.8,5.73,1.93,-14.5,25.5
2015-04-26 01:35:00,0.0,1.93201,0.00035,404.723,0.025,0.1555,0.0015,139.999,45.001,34128.81322,1.93496,405.483,32.659,45.068,44.999,0.00,0.09,-272.72,-272.78,-3,970,-2,21.5,4.5,-21.0,21.1,4.7,-20.8,5.73,1.90,-14.5,25.5
2015-04-26 01:36:00,0.0,1.93215,0.00024,404.728,0.042,0.1541,0.0011,139.997,45.001,34127.41355,1.93509,405.481,32.688,45.068,44.999,0.00,0.09,-272.72,-272.78,-3,970,-2,21.5,4.5,-21.0,21.2,4.6,-20.8,5.73,1.92,-14.5,25.5
2015-04-26 01:37:00,0.0,1.93203,0.00033,404.735,0.031,0.1543,0.0023,139.999,45.001,34127.41268,1.93498,405.489,32.724,45.068,45.000,0.00,0.09,-272.72,-272.78,-3,970,-2,21.5,4.5,-21.0,21.2,4.6,-20.8,5.73,1.98,-14.5,25.6
2015-04-26 01:38:00,0.0,1.93202,0.00032,404.754,0.046,0.1533,0.0019,140.001,45.000,34127.88855,1.93493,405.499,32.750,45.068,45.000,0.00,0.09,-272.72,-272.78,-3,970,-2,21.5,4.4,-21.1,21.2,4.6,-20.8,5.73,2.01,-14.5,25.6
2015-04-26 01:39:00,0.0,1.93203,0.00037,404.802,0.034,0.1531,0.0015,140.001,45.000,34128.90024,1.93495,405.552,32.750,45.068,45.000,0.00,0.09,-272.72,-272.78,-2,969,-2,21.5,4.4,-21.1,21.2,4.6,-20.9,5.73,1.97,-14.5,25.6
2015-04-26 01:40:00,0.0,1.93215,0.00032,404.784,0.059,0.1510,0.0009,140.001,45.000,34129.66790,1.93504,405.518,32.764,45.068,45.000,0.00,0.09,-272.72,-272.77,-2,969,-2,21.6,4.4,-21.1,21.2,4.6,-21.0,5.73,1.93,-14.5,25.6
2015-04-26 01:41:00,0.0,1.93206,0.00033,404.813,0.065,0.1519,0.0026,140.003,45.000,34130.08380,1.93498,405.560,32.786,45.069,45.000,0.00,0.09,-272.72,-272.77,-2,969,-2,21.6,4.4,-21.1,21.2,4.6,-21.0,5.73,1.91,-14.5,25.6
2015-04-26 01:42:00,0.0,1.93226,0.00031,404.741,0.025,0.1518,0.0015,140.000,45.001,34130.33388,1.93515,405.480,32.756,45.069,45.000,0.00,0.09,-272.72,-272.78,-3,968,-2,21.6,4.4,-21.1,21.3,4.6,-20.9,5.73,1.93,-14.5,25.7
2015-04-26 01:43:00,0.0,1.93216,0.00032,404.758,0.039,0.1521,0.0018,140.000,45.000,34132.17317,1.93505,405.501,32.721,45.069,45.001,0.00,0.09,-272.72,-272.77,-3,970,-2,21.7,4.4,-21.1,21.3,4.6,-20.9,5.73,1.95,-14.5,25.7
2015-04-26 01:44:00,0.0,1.93224,0.00031,404.738,0.041,0.1521,0.0016,140.000,45.000,34136.65809,1.93516,405.483,32.668,45.069,45.000,0.00,0.09,-272.71,-272.77,-3,971,-2,21.7,4.4,-21.1,21.3,4.6,-20.9,5.73,1.96,-14.5,25.7
2015-04-26 01:45:00,0.0,1.93199,0.00041,404.752,0.026,0.1511,0.0018,140.002,45.000,34138.25655,1.93488,405.488,32.604,45.069,45.000,0.00,0.09,-272.72,-272.78,-3,972,-2,21.7,4.4,-21.2,21.3,4.5,-21.0,5.73,1.96,-14.4,25.8
2015-04-26 01:46:00,0.0,1.93185,0.00039,404.733,0.031,0.1503,0.0013,140.003,45.000,34139.21246,1.93469,405.468,32.523,45.069,45.000,0.00,0.09,-272.72,-272.78,-3,972,-2,21.7,4.4,-21.2,21.3,4.5,-21.0,5.73,1.96,-14.4,25.8